#datint,netname,site,siteID,timestamp,IntT,BattV,AirT2,AirT,AirT_Avg,AirT_Max,AirT_Min,RH_Avg,RH_Max,RH_Min,EA_Avg,Td_Avg,Td_Max,Td_Min,WindS_Smp,WindS_Avg,WindD_Avg,WindD_SD,WindS_Max,ETo,ETr,SoilT4,SoilT8,SoilVWC8,SolarW_Avg,wetstate_Avg,wetT_Avg,Precip_accum,Precip_WPG,Precip_TB
15min,AgWx,beryljct,423,14SEP2019:00:00:00,50.2,12.95,44.2,44.2,47.4,49.5,44.2,46,62,35,0.608,27.3,31.9,22.7,3.529,1.3,187,16,3.6,-0.00015,-0.00019,67.7,68.0,9,0,.,.,17.21,0.00,0.00
15min,AgWx,beryljct,423,14SEP2019:00:15:00,49.0,12.95,43.1,44.1,43.8,44.3,43.3,69,72,62,0.676,34.2,35.4,31.9,1.228,2.1,119,0.7,4.0,-0.00011,-0.00013,67.4,68.0,9,0,.,.,17.21,0.00,0.00
15min,AgWx,beryljct,423,14SEP2019:00:30:00,47.7,12.94,41.7,41.9,42.3,44.0,41.6,79,83,69,0.722,36.1,36.8,34.6,0,1.9,322,53,4.3,-0.00014,-0.00018,67.1,68.0,9,0,.,.,17.21,0.00,0.00
15min,AgWx,beryljct,423,14SEP2019:00:45:00,46.7,12.92,40.4,44.9,43.3,46.3,40.8,69,83,54,0.588,33.6,36.1,30.5,0,0.6,266,5.8,1.9,-0.00024,-0.00035,66.8,68.0,9,0,.,.,17.21,0.00,0.00
15min,AgWx,beryljct,423,14SEP2019:01:00:00,46.2,12.91,45.0,45.0,44.5,45.5,42.9,62,67,59,0.628,32.3,32.9,31.2,0.46,0.5,264,0.0,1.2,-0.00025,-0.00038,66.5,67.9,9,0,.,.,17.21,0.00,0.00
15min,AgWx,beryljct,423,14SEP2019:01:15:00,45.7,12.9,44.5,44.0,43.7,45.0,43.0,64,67,61,0.600,32.4,33.2,31.6,2.718,1.4,229,41,4.1,-0.00016,-0.00020,66.2,67.8,9,0,.,.,17.21,0.00,0.00
15min,AgWx,beryljct,423,14SEP2019:01:30:00,45.2,12.87,41.1,41.0,42.9,44.1,40.9,63,73,58,0.635,31.1,33.1,30.0,2.74,2.7,182,1.1,3.3,-0.00005,-0.00004,65.9,67.8,9,0,.,.,17.21,0.00,0.00
15min,AgWx,beryljct,423,14SEP2019:01:45:00,44.8,12.88,42.9,43.1,42.9,44.6,41.0,61,72,52,0.588,30.4,32.9,28.2,1.425,2.2,184,0.1,3.1,-0.00008,-0.00008,65.6,67.7,9,0,.,.,17.22,0.00,0.00
15min,AgWx,beryljct,423,14SEP2019:02:00:00,44.4,12.86,42.4,41.6,42.5,43.3,41.6,63,67,60,0.558,30.8,31.9,28.9,2.411,2.0,179,3.3,3.3,-0.00010,-0.00012,65.3,67.6,9,0,.,.,17.22,0.00,0.00
15min,AgWx,beryljct,423,14SEP2019:02:15:00,43.9,12.85,43.0,41.3,40.9,42.3,39.8,63,70,52,0.462,29.0,31.3,25.2,1.6,1.6,175,0.6,2.7,-0.00013,-0.00016,65.0,67.6,9,0,.,.,17.21,0.00,0.00
15min,AgWx,beryljct,423,14SEP2019:02:30:00,43.3,12.84,40.8,40.6,40.8,41.6,39.7,59,68,51,0.511,27.6,30.1,24.9,0,0.6,174,0.0,2.3,-0.00022,-0.00032,64.8,67.5,9,0,.,.,17.21,0.00,0.00
15min,AgWx,beryljct,423,14SEP2019:02:45:00,42.9,12.82,42.3,41.4,41.6,42.1,40.6,64,71,55,0.489,30.1,33.0,26.6,2.433,0.4,174,0.1,2.5,-0.00026,-0.00040,64.5,67.4,9,0,.,.,17.21,0.00,0.00
15min,AgWx,beryljct,423,14SEP2019:03:00:00,42.5,12.82,38.9,39.0,40.9,42.8,39.0,60,71,48,0.569,28.0,30.6,24.3,1.315,1.3,174,0.0,2.6,-0.00015,-0.00020,64.2,67.4,9,0,.,.,17.21,0.00,0.00
15min,AgWx,beryljct,423,14SEP2019:03:15:00,41.9,12.81,38.8,38.8,38.5,39.0,38.0,74,77,69,0.557,31.0,31.6,29.7,0.702,1.4,174,0.1,2.6,-0.00016,-0.00020,63.9,67.3,10,0,.,.,17.21,0.00,0.00
15min,AgWx,beryljct,423,14SEP2019:03:30:00,41.4,12.81,39.1,39.6,38.9,39.8,38.4,72,78,60,0.622,30.5,33.0,26.5,0.066,0.2,174,0.0,0.8,-0.00026,-0.00040,63.7,67.2,9,0,.,.,17.21,0.00,0.00
15min,AgWx,beryljct,423,14SEP2019:03:45:00,40.8,12.8,39.6,38.8,38.4,39.5,38.0,79,81,72,0.575,32.4,33.3,30.5,1.359,0.4,174,0.0,1.4,-0.00024,-0.00036,63.5,67.2,9,0,.,.,17.21,0.00,0.00
15min,AgWx,beryljct,423,14SEP2019:04:00:00,40.4,12.79,37.9,37.4,37.9,38.9,37.1,76,80,71,0.597,31.0,31.8,30.0,0,0.3,174,0.0,1.1,-0.00024,-0.00036,63.2,67.1,9,0,.,.,17.22,0.00,0.00
15min,AgWx,beryljct,423,14SEP2019:04:15:00,39.9,12.79,41.6,40.3,38.5,40.3,37.4,72,79,60,0.509,30.3,31.5,27.5,0,0.0,174,0.0,0.1,-0.00028,-0.00045,63.0,67.0,9,0,.,.,17.21,0.00,0.00
15min,AgWx,beryljct,423,14SEP2019:04:30:00,39.8,12.79,39.4,38.9,39.5,40.6,38.3,68,75,59,0.586,29.6,31.5,27.2,3.398,1.2,169,10,3.4,-0.00017,-0.00023,62.7,66.9,9,0,.,.,17.21,0.00,0.00
15min,AgWx,beryljct,423,14SEP2019:04:45:00,39.6,12.77,35.8,35.4,37.5,39.4,35.4,69,73,65,0.498,28.4,30.9,27.0,3.157,4.0,166,17,5.5,-0.00001,0.00000,62.5,66.8,9,0,.,.,17.22,0.00,0.00
15min,AgWx,beryljct,423,14SEP2019:05:00:00,39.1,12.77,39.7,40.3,37.5,40.6,35.4,62,71,52,0.444,25.6,27.0,24.2,2.17,2.8,182,1.1,3.8,-0.00004,-0.00003,62.3,66.7,9,0,.,.,17.22,0.00,0.00
15min,AgWx,beryljct,423,14SEP2019:05:15:00,38.9,12.77,38.4,37.4,37.7,40.3,36.8,63,71,53,0.465,26.4,28.2,24.4,1.995,1.5,181,0.5,2.3,-0.00013,-0.00016,62.0,66.6,9,0,.,.,17.22,0.00,0.00
15min,AgWx,beryljct,423,14SEP2019:05:30:00,38.8,12.77,40.0,39.4,38.5,39.4,37.5,57,63,50,0.457,24.4,26.1,21.9,0,1.5,183,1.5,2.1,-0.00012,-0.00015,61.8,66.6,9,0,.,.,17.22,0.00,0.00
15min,AgWx,beryljct,423,14SEP2019:05:45:00,38.7,12.76,37.7,37.6,38.6,40.3,37.5,62,68,54,0.519,26.5,28.1,24.8,0,0.0,181,0.0,0.1,-0.00029,-0.00047,61.6,66.4,9,0,.,.,17.21,0.00,0.00
15min,AgWx,beryljct,423,14SEP2019:06:00:00,38.6,12.76,35.1,35.1,37.5,38.8,35.1,66,71,57,0.487,27.1,29.1,24.6,2.411,2.7,1.9,78,4.6,-0.00006,-0.00006,61.4,66.3,9,0,.,.,17.21,0.00,0.00
15min,AgWx,beryljct,423,14SEP2019:06:15:00,38.2,12.76,34.4,35.9,35.4,36.7,34.7,66,70,58,0.437,25.1,26.5,23.2,0.811,1.5,348,0.4,2.7,-0.00013,-0.00016,61.2,66.3,9,0,.,.,17.21,0.00,0.00
15min,AgWx,beryljct,423,14SEP2019:06:30:00,37.7,12.76,34.2,33.8,34.3,35.8,33.4,69,73,62,0.474,25.1,26.1,24.0,0,1.2,6.9,4.0,2.7,0.00007,0.00013,61.0,66.2,9,0,.,.,17.22,0.00,0.00
15min,AgWx,beryljct,423,14SEP2019:06:45:00,37.1,12.74,35.5,35.3,34.7,35.3,33.9,69,72,65,0.456,25.6,26.4,24.8,2.74,1.0,4.4,1.6,2.7,0.00007,0.00011,60.8,66.1,9,0,.,.,17.21,0.00,0.00
15min,AgWx,beryljct,423,14SEP2019:07:00:00,36.8,12.75,36.4,35.5,34.6,35.5,34.0,72,76,66,0.460,26.3,27.3,24.9,2.258,1.9,346,0.3,4.2,0.00011,0.00018,60.6,66.0,10,0,.,.,17.21,0.00,0.00
15min,AgWx,beryljct,423,14SEP2019:07:15:00,37.0,12.75,35.4,35.5,37.6,39.7,35.5,58,68,50,0.478,24.0,26.1,22.2,0,2.3,351,4.9,4.4,0.00020,0.00034,60.4,65.9,9,3,.,.,17.21,0.00,0.00
15min,AgWx,beryljct,423,14SEP2019:07:30:00,36.9,12.76,34.8,34.4,34.7,35.6,33.7,71,79,67,0.464,26.3,28.0,25.2,2.938,2.5,216,62,5.3,0.00018,0.00028,60.2,65.8,9,14,.,.,17.21,0.01,0.00
15min,AgWx,beryljct,423,14SEP2019:07:45:00,36.8,12.78,35.8,36.1,35.6,36.6,34.4,66,71,63,0.510,25.3,27.6,24.4,1.206,2.4,173,19,4.0,0.00037,0.00049,60.0,65.7,9,52,.,.,17.21,0.00,0.00
15min,AgWx,beryljct,423,14SEP2019:08:00:00,37.6,12.79,40.3,40.3,38.3,40.3,35.9,67,74,62,0.544,28.3,29.5,27.5,1.841,1.6,150,1.6,2.6,0.00048,0.00059,59.8,65.6,9,92,.,.,17.21,0.00,0.00
15min,AgWx,beryljct,423,14SEP2019:08:15:00,39.5,12.87,43.9,43.3,41.9,43.3,40.1,59,66,52,0.522,28.4,29.7,26.8,5.02,4.3,170,5.8,6.0,0.00084,0.00113,59.7,65.5,9,138,.,.,17.21,0.00,0.00
15min,AgWx,beryljct,423,14SEP2019:08:30:00,42.2,13,46.0,45.6,44.4,45.7,43.3,55,57,52,0.573,29.0,30.4,28.0,5.196,4.8,161,5.3,5.8,0.00112,0.00149,59.5,65.4,9,185,.,.,17.20,0.00,0.00
15min,AgWx,beryljct,423,14SEP2019:08:45:00,45.0,13.29,48.0,47.8,46.7,47.8,45.7,56,59,52,0.627,31.7,33.2,29.8,3.486,4.3,148,7.1,5.4,0.00134,0.00170,59.3,65.3,9,235,.,.,17.20,0.00,0.00
15min,AgWx,beryljct,423,14SEP2019:09:00:00,47.9,13.72,49.8,49.7,48.8,49.8,47.8,56,59,53,0.652,33.7,35.4,31.4,4.494,3.5,136,4.4,4.7,0.00158,0.00192,59.2,65.2,9,288,.,.,17.20,0.00,0.00
15min,AgWx,beryljct,423,14SEP2019:09:15:00,50.7,14.44,51.9,52.0,50.8,52.1,49.7,51,54,48,0.640,33.2,35.0,31.6,3.836,3.7,131,5.2,4.6,0.00192,0.00233,59.1,65.1,9,339,.,.,17.20,0.00,0.00
15min,AgWx,beryljct,423,14SEP2019:09:30:00,53.6,14.43,55.3,54.7,53.6,54.8,52.0,45,53,40,0.601,32.6,35.9,29.9,2.609,3.3,132,6.4,4.9,0.00227,0.00272,59.0,65.0,9,390,.,.,17.20,0.00,0.00
15min,AgWx,beryljct,423,14SEP2019:09:45:00,56.6,14.39,58.7,57.8,56.6,57.9,54.7,40,45,34,0.583,32.3,34.4,29.5,0.11,1.0,131,2.6,2.9,0.00249,0.00278,59.0,64.9,9,440,.,.,17.19,0.00,0.00
15min,AgWx,beryljct,423,14SEP2019:10:00:00,59.9,14.32,59.4,59.4,58.6,59.9,57.9,35,40,32,0.682,30.7,34.8,28.4,1.403,1.3,63,26,3.3,0.00286,0.00321,59.0,64.8,9,490,.,.,17.19,0.00,0.00
15min,AgWx,beryljct,423,14SEP2019:10:15:00,62.9,14.21,60.8,61.8,60.7,61.8,59.3,39,42,36,0.699,35.7,37.2,34.2,1.798,1.5,113,12,3.5,0.00321,0.00360,59.0,64.7,9,537,.,.,17.19,0.00,0.00
15min,AgWx,beryljct,423,14SEP2019:10:30:00,65.8,14.17,65.4,64.1,62.9,64.1,61.6,29,36,25,0.538,29.7,34.8,27.1,0,0.6,116,4.2,2.1,0.00347,0.00379,59.1,64.6,9,580,.,.,17.18,0.00,0.00
15min,AgWx,beryljct,423,14SEP2019:10:45:00,68.6,14.23,65.1,65.4,64.9,65.6,64.4,26,30,22,0.523,29.1,32.4,26.0,0.745,0.6,266,48,1.5,0.00378,0.00412,59.3,64.5,9,621,.,.,17.18,0.00,0.00
15min,AgWx,beryljct,423,14SEP2019:11:00:00,71.2,14.11,68.4,67.0,66.4,67.0,65.4,27,32,25,0.584,31.5,35.5,28.8,0.658,1.2,314,6.3,2.2,0.00416,0.00463,59.6,64.5,9,660,.,.,17.17,0.00,0.00
15min,AgWx,beryljct,423,14SEP2019:11:15:00,73.2,14.07,68.9,70.4,68.1,70.5,66.7,28,34,23,0.711,33.5,37.4,29.9,3.486,1.5,302,77,3.9,0.00449,0.00502,59.8,64.4,9,697,.,.,17.17,0.00,0.00
15min,AgWx,beryljct,423,14SEP2019:11:30:00,74.8,13.63,70.4,70.3,70.2,70.8,69.6,28,32,25,0.639,35.6,39.2,32.4,1.447,2.1,169,17,4.5,0.00487,0.00553,60.2,64.3,9,731,.,.,17.17,0.00,0.00
15min,AgWx,beryljct,423,14SEP2019:11:45:00,76.0,13.7,71.4,71.1,71.3,72.3,70.0,26,33,22,0.859,34.7,40.6,31.3,0,0.6,153,7.1,3.0,0.00492,0.00535,60.5,64.2,9,760,.,.,17.16,0.00,0.00
15min,AgWx,beryljct,423,14SEP2019:12:00:00,77.3,13.6,72.8,73.1,71.7,73.1,70.8,31,35,27,0.839,39.1,41.9,36.3,1.951,0.6,217,7.9,2.2,0.00512,0.00556,60.9,64.2,9,786,.,.,17.17,0.00,0.00
15min,AgWx,beryljct,423,14SEP2019:12:15:00,78.7,13.57,77.4,76.4,74.4,76.4,73.1,28,35,20,0.639,39.1,45.2,32.3,1.754,1.0,235,31,2.1,0.00542,0.00595,61.4,64.2,9,808,.,.,17.16,0.00,0.00
15min,AgWx,beryljct,423,14SEP2019:12:30:00,80.4,13.55,76.2,76.1,76.0,77.3,75.4,24,31,18,0.676,36.3,43.2,30.1,1.03,0.8,322,26,2.4,0.00556,0.00609,62.0,64.1,9,826,.,.,17.16,0.00,0.00
15min,AgWx,beryljct,423,14SEP2019:12:45:00,82.1,13.51,80.8,78.8,77.6,79.5,76.2,19,24,16,0.639,31.6,37.5,28.3,2.674,2.1,357,44,4.4,0.00588,0.00668,62.5,64.1,9,842,.,.,17.16,0.00,0.00
15min,AgWx,beryljct,423,14SEP2019:13:00:00,83.6,13.48,79.4,80.6,79.9,81.0,78.9,17,20,15,0.654,31.9,35.4,27.7,5.875,3.2,34,22,5.9,0.00622,0.00727,63.1,64.1,9,852,.,.,17.16,0.00,0.00
15min,AgWx,beryljct,423,14SEP2019:13:15:00,84.8,13.44,81.9,81.9,80.9,81.9,80.2,17,19,15,0.702,31.4,35.5,29.0,1.25,2.7,65,45,5.4,0.00623,0.00719,63.7,64.1,9,861,.,.,17.16,0.00,0.00
15min,AgWx,beryljct,423,14SEP2019:13:30:00,85.7,13.57,80.7,82.1,82.2,83.0,81.3,17,19,15,0.592,32.9,36.2,30.3,4.406,2.0,140,82,5.2,0.00616,0.00697,64.4,64.1,9,862,.,.,17.16,0.00,0.00
15min,AgWx,beryljct,423,14SEP2019:13:45:00,86.5,13.4,82.5,83.1,82.8,83.6,81.6,17,21,14,0.683,33.9,39.3,28.0,3.858,4.0,102,19,6.7,0.00657,0.00781,65.1,64.1,9,865,.,.,17.16,0.00,0.00
15min,AgWx,beryljct,423,14SEP2019:14:00:00,87.0,13.49,85.2,84.7,84.2,84.9,83.0,18,24,14,0.592,35.7,43.3,29.6,6.971,6.8,140,16,10.2,0.00705,0.00882,65.8,64.2,9,857,.,.,17.16,0.00,0.00
15min,AgWx,beryljct,423,14SEP2019:14:15:00,87.4,13.4,85.7,84.2,84.9,85.7,84.0,18,22,14,0.705,36.3,41.0,30.2,10.59,9.1,144,21,12.3,0.00742,0.00960,66.4,64.2,9,850,.,.,17.16,0.00,0.00
15min,AgWx,beryljct,423,14SEP2019:14:30:00,87.8,13.35,84.8,85.3,85.1,85.6,84.3,14,18,12,0.620,31.2,36.4,27.2,8.59,10.8,171,15,16.5,0.00768,0.01024,67.1,64.3,9,838,.,.,17.16,0.00,0.00
15min,AgWx,beryljct,423,14SEP2019:14:45:00,88.0,13.45,82.1,84.3,84.0,85.6,82.3,19,26,13,0.840,36.6,45.2,28.6,8.9,8.9,200,20,15.3,0.00711,0.00921,67.8,64.4,9,820,.,.,17.17,0.01,0.00
15min,AgWx,beryljct,423,14SEP2019:15:00:00,88.0,13.35,84.9,85.4,83.9,85.4,82.9,19,25,14,0.741,37.6,43.5,30.1,13.66,8.5,194,18,13.8,0.00689,0.00888,68.4,64.5,9,801,.,.,17.16,0.00,0.00
15min,AgWx,beryljct,423,14SEP2019:15:15:00,88.5,13.34,86.1,86.4,85.4,86.4,84.7,14,17,11,0.607,30.5,35.0,25.8,8.11,7.4,169,28,13.1,0.00672,0.00868,69.0,64.6,9,777,.,.,17.16,0.00,0.00
15min,AgWx,beryljct,423,14SEP2019:15:30:00,89.1,13.34,85.4,85.6,85.8,86.7,85.2,15,18,11,0.622,32.2,37.5,26.0,4.604,7.7,158,25,12.3,0.00657,0.00855,69.6,64.7,9,749,.,.,17.16,0.00,0.00
15min,AgWx,beryljct,423,14SEP2019:15:45:00,89.4,13.34,85.3,85.6,85.6,86.0,85.0,16,24,13,0.587,34.4,44.0,28.2,9.56,7.6,162,26,12.0,0.00629,0.00819,70.1,64.8,9,715,.,.,17.16,0.00,0.00
15min,AgWx,beryljct,423,14SEP2019:16:00:00,89.2,13.34,85.0,83.2,83.2,85.5,81.2,23,38,12,0.604,40.6,53.8,26.7,6.489,6.3,217,20,13.1,0.00551,0.00702,70.6,65.0,9,665,.,.,17.16,0.00,0.00
15min,AgWx,beryljct,423,14SEP2019:16:15:00,89.1,13.3,85.0,85.6,85.2,86.6,83.5,15,22,11,0.599,31.4,40.8,24.6,10.54,5.7,187,21,13.1,0.00541,0.00693,71.1,65.1,9,649,.,.,17.17,0.00,0.00
15min,AgWx,beryljct,423,14SEP2019:16:30:00,89.4,13.3,80.2,81.2,84.5,86.0,81.2,17,29,12,1.047,34.9,45.8,27.3,5.064,7.0,194,34,12.7,0.00538,0.00711,71.5,65.3,9,609,.,.,17.17,0.00,0.00
15min,AgWx,beryljct,423,14SEP2019:16:45:00,88.8,13.29,81.1,82.2,83.3,85.7,80.5,21,36,14,0.748,39.0,51.1,29.6,4.976,4.9,226,28,10.3,0.00449,0.00572,71.9,65.4,9,556,.,.,17.16,0.00,0.00
15min,AgWx,beryljct,423,14SEP2019:17:00:00,88.4,13.3,81.9,81.0,82.7,85.0,80.6,22,34,12,0.707,38.9,50.3,25.7,7.717,6.7,201,50,14.5,0.00460,0.00612,72.2,65.6,9,529,.,.,17.17,0.00,0.00
15min,AgWx,beryljct,423,14SEP2019:17:15:00,87.3,13.32,84.2,84.7,81.7,84.7,79.0,22,31,14,0.603,38.4,46.2,31.1,5.919,5.3,208,23,9.0,0.00397,0.00522,72.6,65.7,9,481,.,.,17.16,0.00,0.00
15min,AgWx,beryljct,423,14SEP2019:17:30:00,87.1,13.33,84.6,83.1,83.5,84.8,81.7,18,21,14,0.604,35.2,39.4,30.2,6.445,8.0,172,26,13.2,0.00427,0.00606,72.9,65.9,9,436,.,.,17.16,0.00,0.00
15min,AgWx,beryljct,423,14SEP2019:17:45:00,86.8,13.33,84.7,84.7,84.2,85.3,82.9,14,19,11,0.472,29.1,36.6,24.1,3.946,6.5,170,23,11.9,0.00367,0.00524,73.1,66.1,9,386,.,.,17.17,0.00,0.00
15min,AgWx,beryljct,423,14SEP2019:18:00:00,86.3,13.33,84.5,84.0,82.6,84.7,80.3,18,25,11,0.514,33.6,42.9,24.5,7.344,6.2,203,31,12.3,0.00317,0.00458,73.3,66.2,9,337,.,.,17.17,0.00,0.00
15min,AgWx,beryljct,423,14SEP2019:18:15:00,85.2,13.39,80.2,78.3,80.3,84.2,77.7,20,26,12,0.819,35.1,39.9,25.1,5.678,7.3,215,19,10.4,0.00298,0.00450,73.4,66.4,9,286,.,.,17.17,0.00,0.00
15min,AgWx,beryljct,423,14SEP2019:18:30:00,83.3,13.43,79.4,78.6,78.2,80.7,76.2,22,30,14,0.657,36.2,43.0,27.6,5.437,6.4,222,9.5,9.4,0.00233,0.00359,73.5,66.6,9,236,.,.,17.17,0.00,0.00
15min,AgWx,beryljct,423,14SEP2019:18:45:00,81.4,13.47,81.6,78.5,77.2,78.6,75.1,23,29,17,0.586,35.8,40.8,30.1,9.19,6.5,220,12,10.2,0.00131,0.00180,73.5,66.7,9,186,.,.,17.17,0.00,0.00
15min,AgWx,beryljct,423,14SEP2019:19:00:00,79.9,13.31,76.1,76.6,76.2,79.2,74.5,23,26,16,0.614,35.2,38.7,28.8,7.322,6.6,213,6.5,9.2,0.00118,0.00162,73.5,66.9,9,138,.,.,17.17,0.00,0.00
15min,AgWx,beryljct,423,14SEP2019:19:15:00,78.3,13.24,73.9,74.1,75.7,77.2,74.1,21,24,17,0.662,32.6,35.0,29.4,6.314,7.5,211,7.9,10.1,0.00117,0.00159,73.5,67.1,9,94,.,.,17.17,0.00,0.00
15min,AgWx,beryljct,423,14SEP2019:19:30:00,76.4,13.17,73.0,73.8,73.9,74.6,73.4,22,24,20,0.613,32.8,34.7,30.1,5.722,6.4,211,4.4,8.4,0.00089,0.00125,73.4,67.2,9,53,.,.,17.18,0.00,0.00
15min,AgWx,beryljct,423,14SEP2019:19:45:00,74.3,13.13,72.0,71.7,72.9,74.5,71.6,22,25,19,0.588,32.0,33.8,29.0,6.27,5.8,210,3.6,7.4,0.00069,0.00100,73.2,67.3,9,12,.,.,17.18,0.00,0.00
15min,AgWx,beryljct,423,14SEP2019:20:00:00,72.4,13.11,72.1,71.2,72.1,73.3,70.8,21,24,19,0.559,30.3,32.3,28.3,5.502,5.9,207,2.6,7.0,0.00068,0.00098,73.0,67.4,9,3,.,.,17.18,0.00,0.00
15min,AgWx,beryljct,423,14SEP2019:20:15:00,70.9,13.1,70.5,70.8,71.0,71.7,70.4,22,24,21,0.570,30.7,32.0,29.4,6.379,6.5,206,3.3,8.0,0.00072,0.00101,72.7,67.5,9,0,.,.,17.19,0.01,0.00
15min,AgWx,beryljct,423,14SEP2019:20:30:00,69.7,13.09,69.6,69.2,70.1,70.8,69.2,23,26,22,0.621,31.1,32.9,30.1,6.862,6.4,205,4.2,7.3,0.00068,0.00097,72.4,67.6,9,0,.,.,17.18,0.00,0.00
15min,AgWx,beryljct,423,14SEP2019:20:45:00,68.8,13.08,69.0,68.6,68.9,69.5,68.5,26,27,24,0.611,32.4,33.1,31.2,6.16,6.4,204,3.3,7.5,0.00064,0.00091,72.1,67.8,9,0,.,.,17.19,0.00,0.00
15min,AgWx,beryljct,423,14SEP2019:21:00:00,67.8,13.07,67.7,67.3,68.4,69.0,67.3,27,29,25,0.664,32.6,34.1,31.3,4.932,5.7,202,4.9,7.1,0.00056,0.00081,71.8,67.9,9,0,.,.,17.19,0.00,0.00
15min,AgWx,beryljct,423,14SEP2019:21:15:00,66.5,13.06,66.9,64.4,63.9,67.3,59.7,31,36,25,0.511,32.6,35.4,27.6,6.511,5.5,175,22,9.0,0.00044,0.00064,71.5,67.9,9,0,.,.,17.19,0.00,0.00
15min,AgWx,beryljct,423,14SEP2019:21:30:00,65.0,13.05,63.8,63.3,64.6,65.6,63.1,24,28,22,0.537,27.2,30.1,25.6,5.393,5.6,176,6.7,7.4,0.00052,0.00074,71.2,68.0,9,0,.,.,17.19,0.00,0.00
15min,AgWx,beryljct,423,14SEP2019:21:45:00,64.1,13.05,62.7,63.1,64.6,65.8,63.0,25,34,21,0.676,27.6,34.5,25.0,5.261,5.3,181,8.4,6.6,0.00049,0.00071,70.9,68.1,9,0,.,.,17.19,0.00,0.00
15min,AgWx,beryljct,423,14SEP2019:22:00:00,63.3,13.03,68.5,68.5,65.6,68.9,62.9,27,35,20,0.499,30.5,34.9,26.4,4.077,5.1,185,9.2,6.5,0.00046,0.00067,70.5,68.1,9,0,.,.,17.19,0.00,0.00
15min,AgWx,beryljct,423,14SEP2019:22:15:00,63.2,13.03,56.0,57.7,64.2,68.5,57.4,29,41,21,0.636,31.0,34.9,26.9,7.322,4.4,168,20,7.3,0.00035,0.00053,70.2,68.1,9,0,.,.,17.19,0.00,0.00
15min,AgWx,beryljct,423,14SEP2019:22:30:00,62.1,13.02,57.1,57.2,60.1,65.1,56.7,33,39,24,0.602,30.3,32.9,27.3,5.875,7.2,150,9.5,8.5,0.00054,0.00072,69.9,68.2,9,0,.,.,17.19,0.00,0.00
15min,AgWx,beryljct,423,14SEP2019:22:45:00,60.4,13.01,53.5,55.4,56.5,58.2,55.1,39,43,35,0.617,31.7,33.0,30.7,4.779,6.2,139,10,8.3,0.00037,0.00051,69.6,68.2,9,0,.,.,17.19,0.01,0.00
15min,AgWx,beryljct,423,14SEP2019:23:00:00,58.6,13,57.2,56.7,54.6,57.1,52.0,44,53,38,0.615,33.3,35.5,31.6,3.836,2.1,321,79,6.0,-0.00004,-0.00002,69.3,68.2,9,0,.,.,17.19,0.00,0.00
15min,AgWx,beryljct,423,14SEP2019:23:15:00,56.9,13,50.6,55.1,54.8,56.6,53.5,44,48,39,0.656,33.1,34.4,31.6,2.105,0.9,77,12,4.1,-0.00021,-0.00029,69.0,68.2,9,0,.,.,17.20,0.00,0.00
15min,AgWx,beryljct,423,14SEP2019:23:30:00,55.6,12.98,52.5,52.9,55.9,58.6,52.9,39,50,30,0.668,30.8,35.2,27.0,1.008,1.3,234,0.0,2.6,-0.00015,-0.00018,68.7,68.2,9,0,.,.,17.20,0.00,0.00
15min,AgWx,beryljct,423,14SEP2019:23:45:00,54.7,12.98,49.3,51.6,53.4,55.1,51.4,45,55,39,0.625,32.5,35.9,29.7,3.179,1.8,218,9.2,3.9,-0.00009,-0.00009,68.4,68.2,9,0,.,.,17.20,0.00,0.00
15min,AgWx,beryljct,423,15SEP2019:00:00:00,53.6,12.97,50.1,51.7,51.8,55.3,48.6,46,60,33,0.517,30.8,35.5,26.5,4.341,2.6,174,22,4.7,0.00000,0.00004,68.1,68.1,9,0,.,.,17.20,0.00,0.00
15min,AgWx,beryljct,423,15SEP2019:00:15:00,53.0,12.96,57.0,57.0,52.9,57.0,51.2,38,44,31,0.498,28.0,30.5,26.6,4.669,4.2,196,4.9,5.2,0.00019,0.00030,67.8,68.1,9,0,.,.,17.21,0.00,0.00
15min,AgWx,beryljct,423,15SEP2019:00:30:00,52.8,12.94,45.8,48.8,54.7,59.2,48.8,39,55,29,0.647,29.9,33.4,27.2,5.349,4.9,165,17,6.5,0.00026,0.00039,67.5,68.1,9,0,.,.,17.20,0.00,0.00
15min,AgWx,bigpiney,439,14SEP2019:00:00:00,43.3,12.71,40.8,42.5,42.1,43.7,39.4,69,76,65,0.608,32.7,33.7,30.5,3.88,1.9,191,54,4.2,0.00003,0.00005,51.2,49.7,41,0,0,0.0,4.86,0.00,0.00
15min,AgWx,bigpiney,439,14SEP2019:00:15:00,42.8,12.7,37.9,37.6,39.1,42.2,36.2,74,83,66,0.626,31.5,33.9,29.8,2.587,3.6,248,20,6.2,0.00007,0.00010,51.1,49.7,41,0,0,0.0,4.86,0.00,0.00
15min,AgWx,bigpiney,439,14SEP2019:00:30:00,42.0,12.7,42.5,41.4,39.6,41.4,37.7,78,82,74,0.652,33.1,34.0,31.6,3.529,3.4,281,12,4.9,0.00005,0.00007,51.0,49.7,41,0,0,0.0,4.86,0.00,0.00
15min,AgWx,bigpiney,439,14SEP2019:00:45:00,41.3,12.68,37.8,37.3,40.5,42.1,37.2,72,77,69,0.551,32.2,34.2,28.7,3.288,4.2,244,32,5.3,0.00009,0.00013,51.0,49.8,41,0,0,0.0,4.86,0.00,0.00
15min,AgWx,bigpiney,439,14SEP2019:01:00:00,40.8,12.68,42.0,42.5,41.0,43.1,37.2,72,79,68,0.634,32.8,34.0,29.7,2.061,2.0,321,26,4.5,0.00002,0.00004,50.9,49.8,41,0,0,0.0,4.86,0.00,0.00
15min,AgWx,bigpiney,439,14SEP2019:01:15:00,40.7,12.67,43.0,41.4,40.8,42.5,39.7,73,76,69,0.629,32.8,34.1,31.7,0.636,2.1,271,62,5.6,0.00002,0.00004,50.8,49.8,41,0,0,0.0,4.86,0.00,0.00
15min,AgWx,bigpiney,439,14SEP2019:01:30:00,40.6,12.66,41.3,40.7,41.2,42.4,39.8,72,75,69,0.638,32.8,33.8,30.7,4.823,2.6,308,18,4.8,0.00005,0.00007,50.7,49.8,41,0,0,0.0,4.86,0.00,0.00
15min,AgWx,bigpiney,439,14SEP2019:01:45:00,40.6,12.66,42.4,41.8,41.7,42.3,40.8,72,74,71,0.648,33.4,33.9,32.5,5.941,5.1,305,13,6.7,0.00011,0.00015,50.6,49.8,41,0,0,0.0,4.86,0.00,0.00
15min,AgWx,bigpiney,439,14SEP2019:02:00:00,40.8,12.65,41.8,41.5,41.3,41.9,40.5,73,76,72,0.652,33.4,34.1,32.6,1.14,3.7,299,24,5.2,0.00008,0.00011,50.5,49.8,41,0,0,0.0,4.86,0.00,0.00
15min,AgWx,bigpiney,439,14SEP2019:02:15:00,40.8,12.64,38.2,37.8,40.1,41.4,37.8,75,77,71,0.584,32.8,34.1,30.6,4.275,2.4,282,53,5.5,0.00003,0.00005,50.5,49.7,41,0,0,0.0,4.86,0.00,0.00
15min,AgWx,bigpiney,439,14SEP2019:02:30:00,40.3,12.63,34.2,34.4,36.0,38.6,34.4,81,86,75,0.564,30.6,34.2,29.2,3.946,4.9,198,8.6,7.3,0.00005,0.00008,50.4,49.8,41,0,0,0.0,4.86,0.00,0.00
15min,AgWx,bigpiney,439,14SEP2019:02:45:00,39.6,12.62,34.3,34.1,33.5,34.8,32.7,86,89,84,0.558,29.8,31.8,28.9,4.582,4.5,222,12,7.0,0.00002,0.00003,50.3,49.8,41,0,0,0.0,4.86,0.00,0.00
15min,AgWx,bigpiney,439,14SEP2019:03:00:00,38.9,12.61,34.9,34.5,34.5,36.0,33.5,85,88,83,0.561,30.6,32.5,29.5,0.965,1.6,260,50,4.1,-0.00002,-0.00003,50.2,49.7,41,0,0,0.0,4.86,0.00,0.00
15min,AgWx,bigpiney,439,14SEP2019:03:15:00,38.4,12.61,36.5,36.5,35.8,37.0,34.5,85,87,82,0.607,31.6,33.0,30.0,2.762,1.1,295,29,3.2,-0.00004,-0.00005,50.1,49.7,41,0,0,0.0,4.86,0.00,0.00
15min,AgWx,bigpiney,439,14SEP2019:03:30:00,38.0,12.6,36.6,35.7,37.2,38.7,35.7,83,86,78,0.583,32.5,33.9,30.4,3.201,1.9,252,26,4.5,-0.00001,-0.00001,50.1,49.8,41,0,0,0.0,4.86,0.00,0.00
15min,AgWx,bigpiney,439,14SEP2019:03:45:00,37.6,12.58,32.3,32.2,36.2,38.6,32.2,82,85,75,0.513,31.1,33.2,27.5,3.727,2.4,211,18,3.7,0.00001,0.00001,50.0,49.8,41,0,0,0.0,4.86,0.00,0.00
15min,AgWx,bigpiney,439,14SEP2019:04:00:00,37.2,12.58,30.5,32.3,34.4,36.5,32.2,85,90,81,0.499,30.4,33.0,27.0,0.943,2.5,213,22,3.9,-0.00000,0.00000,49.9,49.8,41,0,0,0.0,4.86,0.00,0.00
15min,AgWx,bigpiney,439,14SEP2019:04:15:00,36.7,12.57,36.1,34.5,35.1,37.9,31.8,85,90,78,0.576,31.0,33.3,26.8,0,1.6,229,20,3.5,-0.00002,-0.00003,49.8,49.7,41,0,0,0.0,4.86,0.00,0.00
15min,AgWx,bigpiney,439,14SEP2019:04:30:00,36.4,12.55,33.0,34.3,34.6,35.7,33.4,86,87,83,0.584,30.9,32.0,28.8,0,0.8,96,12,3.5,-0.00005,-0.00007,49.7,49.7,41,0,0,0.0,4.86,0.00,0.00
15min,AgWx,bigpiney,439,14SEP2019:04:45:00,36.1,12.55,37.5,37.5,35.9,37.6,33.7,87,89,85,0.647,32.4,33.8,29.9,2.039,1.1,220,28,2.5,-0.00004,-0.00006,49.6,49.7,41,0,0,0.0,4.86,0.00,0.00
15min,AgWx,bigpiney,439,14SEP2019:05:00:00,36.0,12.54,32.7,33.0,36.9,37.9,33.0,84,86,79,0.524,32.6,34.1,27.6,3.376,3.0,252,12,4.0,0.00001,0.00002,49.6,49.7,41,0,0,0.0,4.86,0.00,0.00
15min,AgWx,bigpiney,439,14SEP2019:05:15:00,35.8,12.53,35.0,33.6,32.4,33.6,31.8,88,91,83,0.592,29.3,31.2,28.0,1.535,2.8,244,13,3.8,-0.00001,-0.00000,49.5,49.7,41,0,0,0.0,4.86,0.00,0.00
15min,AgWx,bigpiney,439,14SEP2019:05:30:00,35.3,12.52,35.7,34.9,34.8,36.2,33.7,88,91,84,0.609,31.5,33.2,29.7,1.776,1.9,301,19,3.0,-0.00002,-0.00003,49.4,49.6,41,0,0,0.0,4.86,0.00,0.00
15min,AgWx,bigpiney,439,14SEP2019:05:45:00,35.1,12.5,36.7,35.7,35.2,36.3,34.0,87,89,81,0.614,31.6,32.9,29.1,2.083,2.0,288,27,3.2,-0.00002,-0.00002,49.3,49.7,41,0,0,0.0,4.86,0.00,0.00
15min,AgWx,bigpiney,439,14SEP2019:06:00:00,34.9,12.49,35.7,34.1,34.7,36.4,33.0,85,88,81,0.585,30.6,32.8,28.1,2.389,1.7,228,29,3.3,-0.00002,-0.00002,49.2,49.6,41,0,0,0.0,4.86,0.00,0.00
15min,AgWx,bigpiney,439,14SEP2019:06:15:00,34.6,12.49,32.7,30.9,32.7,36.3,29.9,86,90,81,0.524,28.9,32.8,26.6,3.924,3.3,215,19,6.2,0.00001,0.00001,49.2,49.6,41,0,0,0.0,4.86,0.00,0.00
15min,AgWx,bigpiney,439,14SEP2019:06:30:00,34.2,12.48,31.5,31.4,32.6,34.3,31.2,88,93,83,0.517,29.4,31.7,27.1,3.486,2.9,235,19,5.0,-0.00001,-0.00000,49.1,49.6,41,0,0,0.0,4.86,0.00,0.00
15min,AgWx,bigpiney,439,14SEP2019:06:45:00,34.0,12.47,31.7,31.2,31.3,32.5,30.4,88,90,87,0.532,28.2,29.6,27.3,4.691,4.6,224,8.8,5.7,0.00001,0.00002,49.0,49.6,41,0,0,0.0,4.86,0.00,0.00
15min,AgWx,bigpiney,439,14SEP2019:07:00:00,33.8,12.46,33.7,31.9,31.7,32.5,31.0,90,91,87,0.533,29.0,29.5,28.1,3.179,3.7,239,22,5.2,0.00000,0.00001,49.0,49.6,41,2,0,0.0,4.86,0.00,0.00
15min,AgWx,bigpiney,439,14SEP2019:07:15:00,33.7,12.47,30.9,30.7,31.3,32.3,30.6,88,89,87,0.517,28.3,29.4,27.6,1.118,2.6,255,16,4.2,-0.00027,-0.00025,48.9,49.6,41,12,0,0.0,4.86,0.00,0.00